Overview Statistics Trail Chart Weather Telemetry Raw packets
 

This is the latest recevied weather packets stored in our database for station/object WA6ODQ-13. If no packets are shown the sender has not sent any weather packets the latest 10 day(s).

<< 53 54 55 56 57 58 59 >>
Time Temp. Humidity Pressure Rain* Wind** Luminosity Snow
1788307511 23.33° C 51% 1012.9 hPa 0 mm - 276 W/m² -
1788307206 22.78° C 52% 1012.8 hPa 0 mm - 289 W/m² -
1788306901 22.78° C 50% 1013 hPa 0 mm - 302 W/m² -
1788306595 23.89° C 50% 1012.8 hPa 0 mm - 316 W/m² -
1788306290 23.89° C 49% 1012.8 hPa 0 mm - 329 W/m² -
1788305984 23.89° C 48% 1012.8 hPa 0 mm - 343 W/m² -
1788305679 23.33° C 49% 1012.9 hPa 0 mm - 359 W/m² -
1788305376 23.89° C 48% 1012.9 hPa 0 mm - 372 W/m² -
1788305075 23.89° C 48% 1012.9 hPa 0 mm - 385 W/m² -
1788304771 23.89° C 48% 1013 hPa 0 mm - 398 W/m² -
1788304467 23.33° C 50% 1013 hPa 0 mm - 413 W/m² -
1788304164 23.89° C 49% 1013.1 hPa 0 mm - 430 W/m² -
1788303863 23.89° C 48% 1012.8 hPa 0 mm - 403 W/m² -
1788303558 23.33° C 50% 1013.1 hPa 0 mm - 464 W/m² -
1788303253 23.89° C 48% 1012.9 hPa 0 mm - 485 W/m² -
1788302947 23.89° C 47% 1013 hPa 0 mm - 442 W/m² -
1788302643 23.89° C 48% 1013 hPa 0 mm - 501 W/m² -
1788302339 23.89° C 48% 1013 hPa 0 mm - 510 W/m² -
1788302034 23.89° C 49% 1013.1 hPa 0 mm - 520 W/m² -
1788301730 24.44° C 48% 1013.1 hPa 0 mm - 541 W/m² -
1788301422 23.89° C 48% 1013.1 hPa 0 mm - 472 W/m² -
1788301116 24.44° C 48% 1013.1 hPa 0 mm - 528 W/m² -
1788300812 23.89° C 48% 1013.2 hPa 0 mm - 585 W/m² -
1788300512 23.89° C 47% 1013.2 hPa 0 mm - 584 W/m² -
1788300211 23.89° C 49% 1013.1 hPa 0 mm - 629 W/m² -

* Rain latest hour (hover to see other rain measurements)
** Current wind speed in m/s (hover to see current wind gust speed)